Back to catalog

CZ-2C R/B

AliveVLEO
NORAD 52794·ROCKET BODY·🇨🇳 China

Launched Jun 2, 2022 from Xichang Satellite Launch Center

Loading…

Next Passes (next 24 hours)

TLE

FreshSource: Space-Track

Epoch: Sep 14, 2026, 10:26 UTC

1 52794U 22058K   26257.43531731  .00045777  00000-0  38913-3 0  9990
2 52794  50.1838  56.8810 0029962 284.6460  75.1195 15.68498607239624

Track CZ-2C R/B in real time with AllMySat

Download on the App Store